Wind_Speed
59 60 60 61 62 63 63 64 65 66 67 68 69 70 71 72 72 73 73 74 73 73 73 71 69 68 66 63 62 61 58 57 52 45 43 42 41 39 36 33 27 25 30
60 61 61 61 62 63 64 65 66 67 68 69 69 69 70 71 71 72 72 72 72 71 70 69 67 65 64 61 60 59 56 54 51 46 42 41 39 37 35 32 27 24 27
61 61 62 63 64 65 66 66 67 67 68 69 68 69 69 70 70 70 71 70 70 70 68 67 65 63 62 59 58 57 54 52 49 46 42 40 38 36 34 30 26 24 24
62 63 63 64 66 66 66 66 67 67 68 68 67 68 68 69 69 69 69 69 68 68 66 65 63 62 60 58 56 55 52 49 46 44 42 39 37 35 33 29 25 23 22
63 63 65 66 66 66 66 67 67 68 67 66 65 66 67 68 68 67 67 67 66 65 64 62 61 60 58 56 55 54 51 48 45 42 41 39 37 34 32 28 24 21 20
63 64 65 65 65 66 66 67 67 66 65 64 64 65 65 66 66 66 65 64 64 63 61 59 58 57 56 54 53 52 50 48 44 41 40 39 37 34 31 27 23 19 18
64 64 65 65 65 65 65 64 63 63 63 62 63 64 64 64 65 64 63 62 62 61 59 57 56 55 54 52 51 50 48 46 44 41 39 38 36 33 29 25 22 18 17
63 64 64 63 63 62 62 61 61 60 59 60 60 60 61 62 61 61 60 60 60 59 57 56 54 53 52 50 49 48 47 45 42 40 38 36 34 32 28 24 20 17 16
61 61 60 60 60 59 59 58 58 58 57 57 57 58 58 59 59 58 58 58 57 56 55 54 53 51 50 49 48 47 45 42 40 39 37 35 33 31 27 23 18 16 15
58 58 57 57 57 57 57 56 56 55 55 55 55 55 55 56 56 56 56 55 54 53 52 52 51 50 48 47 47 46 43 40 38 36 35 33 31 29 26 21 17 15 14
55 55 55 56 56 56 55 54 54 53 54 53 53 52 53 53 54 53 53 53 52 51 49 49 48 48 47 46 45 45 43 39 37 35 33 31 29 27 24 20 16 13 13
54 53 53 53 53 53 53 52 52 52 53 51 50 50 51 51 51 51 51 52 51 49 47 47 46 46 45 44 44 44 41 38 36 34 32 30 27 25 22 18 14 11 11
51 50 51 51 50 50 50 50 50 50 49 48 47 47 48 49 49 49 49 50 50 48 46 45 45 44 43 43 42 42 40 36 34 32 30 29 26 23 20 16 13 11 10
52 52 52 52 52 52 51 50 50 50 47 45 45 45 46 47 48 47 47 48 48 46 45 44 44 43 42 41 41 41 40 36 33 31 29 27 25 22 18 15 12 10 10
53 53 53 53 53 52 52 51 50 49 47 45 44 44 45 46 46 45 45 46 46 44 43 42 42 42 41 40 40 39 39 36 32 31 28 26 24 21 16 12 10 8 8
55 55 55 54 54 53 52 51 49 48 45 43 43 43 43 43 43 43 43 44 44 43 41 40 40 40 39 38 38 38 37 35 32 29 27 24 22 19 15 11 8 6 5
56 57 57 56 55 53 51 50 49 46 44 42 42 41 41 41 41 41 41 42 42 41 40 39 39 38 38 37 37 37 36 35 31 28 27 23 20 17 14 10 7 5 4
59 60 59 58 56 53 51 50 48 46 43 41 40 39 39 39 39 39 39 40 40 40 39 38 37 37 37 36 36 36 35 34 31 28 26 22 18 15 12 9 6 4 4
61 60 59 58 56 53 51 50 47 45 42 40 38 38 37 37 37 37 37 38 39 38 37 37 36 36 36 35 35 36 35 34 31 27 24 20 16 13 11 7 5 4 3
61 60 59 57 54 52 50 48 45 42 40 38 36 36 35 35 35 35 35 36 37 37 36 35 35 35 35 35 35 35 35 34 31 26 22 19 15 12 9 6 4 3 4
60 58 58 54 52 50 47 45 42 39 37 35 33 33 33 33 33 33 33 34 35 35 35 34 34 34 34 34 34 35 35 33 30 25 21 18 14 11 8 5 4 4 5
58 56 55 52 49 46 43 41 39 36 33 31 30 30 30 31 31 31 32 33 34 34 34 34 33 33 34 34 34 34 34 33 30 24 20 17 13 10 6 4 4 5 7
56 55 53 49 46 42 39 36 33 31 29 27 26 27 28 29 28 29 30 31 32 33 33 33 33 33 33 34 34 35 34 32 29 23 19 15 11 7 4 4 6 7 8
54 52 49 45 41 37 33 30 28 26 24 23 24 25 26 26 26 27 28 29 31 32 32 32 32 33 33 34 34 35 34 32 27 22 17 13 8 4 4 6 8 8 8
50 47 44 40 36 31 28 25 24 22 21 21 22 23 23 23 24 25 27 28 30 31 31 32 32 32 33 34 35 35 34 30 25 20 15 10 5 3 6 9 9 9 9
44 42 39 34 29 26 23 21 20 20 19 19 19 20 20 21 22 23 25 27 29 30 31 31 32 32 33 33 34 33 31 27 22 17 12 7 1 5 8 10 10 10 10
Wind_Direction
300 302 303 304 305 306 308 309 310 311 312 314 316 318 319 320 321 322 323 324 325 325 327 328 328 329 330 329 329 329 329 329 331 332 326 323 320 317 315 308 293 268 243
300 301 303 304 304 305 307 308 309 310 312 313 316 318 318 319 320 321 322 324 324 326 327 328 329 330 330 330 330 330 329 329 330 331 329 326 323 319 316 310 298 276 250
300 301 302 302 303 304 306 307 308 310 311 313 315 317 317 318 319 320 322 323 324 326 327 329 330 330 331 331 331 331 330 329 329 330 331 328 325 321 318 312 301 283 258
299 300 300 301 302 304 305 306 308 310 311 312 313 315 316 317 318 319 321 322 324 326 327 329 330 331 332 332 332 331 331 330 329 330 331 329 327 323 319 314 304 288 266
299 299 300 301 302 304 305 306 308 310 311 312 314 315 316 316 317 318 320 322 324 326 327 329 330 331 332 333 333 333 333 332 330 330 331 330 328 326 321 315 307 291 271
298 299 301 302 304 305 306 307 309 311 312 313 314 315 315 315 316 318 319 321 324 325 327 329 330 331 332 333 334 334 334 333 331 331 331 331 329 326 322 316 308 294 273
300 301 301 302 304 305 307 308 309 310 311 313 313 314 314 315 317 318 319 321 324 326 328 329 331 331 333 334 335 335 333 332 331 331 331 330 329 326 323 316 307 295 274
301 301 302 303 304 305 306 307 309 310 311 313 313 314 315 316 317 318 319 321 324 326 328 329 331 332 333 334 335 335 334 333 331 331 330 329 329 328 324 316 305 292 273
304 304 304 305 306 306 307 308 309 309 310 311 313 314 315 316 316 318 319 321 324 325 327 329 331 333 333 334 336 336 335 333 331 331 330 329 329 328 325 318 306 290 272
306 306 306 306 307 307 307 308 309 310 311 311 313 314 315 316 316 318 319 322 324 325 327 329 331 333 333 335 336 337 336 334 332 331 330 329 329 328 326 319 307 288 268
307 307 307 307 307 307 308 309 310 310 311 312 313 314 315 316 317 318 320 322 324 325 327 329 331 333 334 335 336 337 336 335 334 333 333 332 330 329 327 320 310 290 263
308 308 309 310 310 310 310 310 311 311 312 312 312 313 314 316 317 318 320 322 324 326 327 329 331 333 334 335 336 338 337 336 336 335 335 335 333 331 328 321 310 293 264
310 310 310 311 312 312 312 312 312 313 313 312 312 313 314 316 317 318 320 322 324 326 327 329 332 333 334 335 337 338 339 337 336 335 335 336 336 332 327 321 310 290 268
309 309 310 310 311 311 312 313 313 313 312 311 311 312 314 316 317 318 320 322 323 325 328 330 332 333 334 335 337 338 339 338 337 336 335 336 336 335 329 321 310 288 263
308 308 308 308 309 310 310 311 312 313 312 311 310 312 314 315 317 318 320 321 323 326 328 330 331 333 334 336 337 338 340 339 337 337 336 335 335 334 331 324 316 297 262
309 308 307 306 307 308 308 309 310 311 311 310 309 309 312 313 315 317 320 321 323 326 328 329 331 333 334 335 337 338 339 339 337 336 336 334 334 332 329 324 318 306 264
307 307 307 306 304 305 305 307 308 309 309 309 308 309 310 311 313 316 319 321 323 325 328 329 330 332 334 335 337 338 339 339 337 335 335 334 333 330 326 318 309 304 270
306 306 305 304 303 302 302 303 305 306 307 307 306 307 308 310 312 315 318 320 322 325 327 329 330 332 334 335 337 338 339 339 337 335 334 333 332 331 326 317 299 296 273
308 307 304 303 301 299 298 299 300 301 303 303 303 304 306 308 311 314 318 319 322 325 327 328 330 332 334 335 337 338 339 339 338 335 333 332 331 329 325 317 295 274 256
307 306 305 302 300 297 296 296 296 297 299 299 299 301 304 307 310 313 317 319 322 324 326 328 330 332 334 335 337 338 339 338 338 335 332 329 326 325 321 307 282 250 222
309 307 306 304 301 298 295 294 292 292 294 295 295 297 301 305 308 312 316 319 321 324 326 328 330 332 334 335 336 338 339 338 337 334 330 327 323 320 314 297 251 222 199
310 309 308 304 301 298 294 292 290 288 289 290 291 294 299 304 307 311 315 319 321 324 326 328 330 332 333 335 337 337 338 338 337 333 329 326 320 312 297 266 222 201 185
311 310 309 305 301 298 293 288 286 284 283 284 287 292 298 302 306 311 315 319 321 323 326 329 330 332 333 335 336 337 337 337 336 332 328 324 318 304 267 217 193 188 184
312 310 309 306 301 296 290 286 281 279 278 280 284 291 297 301 305 311 315 319 321 324 327 329 331 332 333 335 336 336 336 336 335 333 329 324 315 287 219 185 177 177 177
313 311 310 306 301 294 287 281 276 274 274 277 283 290 296 300 305 311 316 319 321 324 328 330 331 333 334 335 336 337 337 337 336 335 332 327 307 232 187 176 173 173 171
315 314 312 309 301 293 286 277 272 271 271 276 282 289 294 299 306 312 316 320 322 325 329 331 332 333 335 336 337 338 339 340 340 340 340 336 282 182 174 172 172 170 166
Height
5689 5682 5676 5669 5661 5653 5645 5637 5628 5619 5610 5600 5590 5579 5568 5557 5544 5532 5519 5505 5490 5475 5460 5445 5429 5413 5399 5384 5370 5356 5342 5329 5319 5313 5301 5291 5281 5273 5266 5260 5256 5253 5254
5676 5669 5663 5655 5647 5640 5632 5623 5615 5606 5596 5587 5577 5566 5555 5544 5532 5520 5507 5493 5479 5465 5449 5434 5419 5404 5390 5375 5362 5348 5335 5323 5312 5304 5296 5286 5276 5267 5260 5254 5249 5246 5246
5662 5656 5649 5641 5633 5626 5618 5610 5601 5592 5583 5574 5564 5554 5543 5532 5520 5507 5495 5482 5468 5454 5439 5424 5410 5395 5382 5368 5354 5341 5329 5317 5306 5297 5289 5280 5271 5262 5255 5249 5244 5241 5240
5649 5642 5635 5627 5620 5612 5604 5596 5588 5579 5570 5561 5551 5541 5531 5519 5508 5496 5483 5470 5457 5443 5429 5415 5401 5387 5374 5361 5348 5335 5323 5312 5301 5291 5283 5275 5266 5258 5250 5244 5240 5236 5234
5634 5627 5620 5613 5605 5598 5590 5582 5574 5565 5556 5547 5538 5528 5518 5507 5496 5484 5472 5460 5446 5433 5419 5406 5392 5378 5365 5352 5340 5328 5316 5305 5295 5286 5278 5269 5261 5253 5246 5240 5236 5232 5230
5619 5613 5605 5598 5591 5584 5576 5568 5560 5551 5543 5534 5525 5516 5505 5495 5484 5473 5462 5450 5437 5424 5411 5398 5384 5371 5358 5346 5333 5321 5309 5299 5289 5281 5273 5264 5257 5249 5242 5236 5232 5229 5227
5605 5598 5590 5583 5577 5569 5562 5554 5546 5538 5530 5521 5512 5503 5493 5483 5472 5462 5451 5440 5427 5415 5402 5390 5378 5365 5352 5340 5329 5317 5305 5294 5284 5276 5268 5260 5253 5246 5239 5233 5229 5226 5224
5590 5582 5575 5569 5562 5555 5548 5540 5533 5525 5517 5509 5500 5491 5482 5472 5461 5451 5440 5429 5418 5406 5394 5382 5370 5358 5346 5335 5324 5313 5301 5291 5281 5273 5264 5257 5249 5242 5236 5231 5227 5224 5223
5575 5568 5561 5554 5548 5541 5534 5527 5519 5512 5504 5496 5488 5479 5470 5461 5451 5441 5431 5420 5409 5397 5385 5374 5363 5352 5340 5329 5319 5308 5298 5287 5277 5268 5260 5253 5245 5239 5232 5228 5224 5222 5221
5561 5554 5548 5541 5534 5528 5521 5514 5507 5499 5492 5484 5476 5467 5459 5450 5440 5431 5421 5411 5401 5389 5378 5367 5356 5345 5334 5323 5312 5303 5293 5284 5274 5266 5257 5250 5243 5236 5230 5225 5222 5220 5219
5548 5541 5534 5527 5521 5514 5508 5501 5494 5487 5480 5472 5464 5456 5448 5439 5430 5421 5412 5402 5392 5382 5371 5360 5349 5338 5328 5317 5307 5297 5287 5279 5270 5262 5254 5247 5240 5234 5228 5224 5220 5218 5218
5535 5528 5522 5515 5508 5501 5495 5488 5481 5474 5467 5460 5452 5445 5437 5429 5420 5411 5403 5394 5384 5374 5364 5354 5343 5333 5323 5313 5303 5293 5283 5274 5266 5258 5251 5244 5238 5232 5226 5222 5219 5217 5217
5523 5516 5509 5503 5496 5489 5482 5476 5469 5462 5455 5448 5441 5434 5427 5419 5411 5403 5394 5385 5376 5367 5357 5347 5337 5328 5318 5308 5298 5289 5279 5271 5263 5255 5248 5242 5235 5230 5225 5221 5218 5217 5216
5510 5503 5497 5490 5484 5477 5471 5464 5457 5450 5443 5437 5430 5424 5417 5410 5402 5394 5386 5377 5368 5359 5350 5340 5331 5322 5313 5303 5294 5285 5275 5267 5259 5252 5245 5239 5233 5228 5223 5220 5217 5215 5215
5497 5490 5483 5477 5471 5464 5458 5452 5445 5439 5432 5426 5420 5414 5407 5400 5393 5386 5378 5370 5361 5352 5343 5334 5325 5316 5307 5298 5289 5280 5272 5263 5256 5249 5243 5237 5232 5226 5222 5219 5216 5214 5214
5483 5476 5470 5463 5457 5451 5445 5439 5433 5427 5421 5415 5409 5404 5397 5391 5384 5377 5370 5362 5354 5345 5337 5328 5320 5312 5303 5295 5286 5277 5268 5260 5253 5247 5240 5235 5230 5225 5221 5218 5216 5214 5214
5469 5462 5456 5449 5443 5437 5431 5426 5421 5415 5410 5404 5399 5393 5388 5382 5375 5369 5362 5355 5347 5339 5331 5323 5315 5307 5299 5290 5282 5274 5265 5257 5250 5243 5238 5232 5227 5223 5220 5217 5215 5214 5213
5454 5446 5440 5434 5427 5422 5417 5413 5409 5404 5399 5394 5389 5384 5379 5373 5367 5361 5354 5348 5340 5333 5325 5317 5309 5302 5294 5286 5278 5270 5262 5254 5246 5240 5235 5230 5226 5222 5219 5217 5215 5214 5214
5437 5430 5423 5417 5411 5406 5402 5398 5395 5391 5387 5383 5379 5374 5370 5365 5359 5353 5347 5341 5334 5327 5319 5312 5304 5297 5289 5281 5274 5266 5258 5250 5243 5237 5232 5227 5224 5221 5218 5216 5215 5214 5214
5421 5413 5406 5400 5394 5390 5386 5383 5381 5378 5375 5372 5369 5365 5361 5356 5352 5346 5340 5334 5328 5321 5313 5306 5299 5292 5284 5277 5269 5262 5254 5246 5239 5233 5229 5225 5222 5219 5217 5215 5215 5214 5214
5404 5396 5388 5382 5377 5373 5370 5368 5366 5365 5363 5361 5359 5356 5352 5349 5344 5339 5334 5328 5322 5315 5308 5301 5294 5287 5280 5272 5265 5257 5250 5242 5236 5230 5226 5222 5219 5217 5215 5215 5214 5214 5215
5387 5379 5372 5366 5361 5357 5354 5353 5352 5351 5351 5350 5349 5347 5344 5341 5337 5332 5327 5322 5316 5309 5302 5295 5289 5282 5275 5268 5260 5253 5246 5238 5232 5226 5222 5219 5216 5214 5214 5213 5214 5215 5216
5372 5364 5357 5350 5345 5342 5339 5339 5339 5339 5340 5340 5340 5338 5336 5333 5330 5326 5321 5316 5310 5304 5297 5290 5284 5277 5270 5263 5256 5248 5241 5234 5228 5222 5218 5215 5213 5212 5212 5212 5214 5215 5217
5358 5350 5342 5336 5331 5328 5327 5327 5328 5329 5330 5331 5332 5330 5329 5326 5323 5319 5315 5310 5305 5298 5292 5285 5279 5272 5265 5258 5251 5243 5236 5229 5223 5218 5214 5211 5210 5210 5210 5212 5214 5216 5218
5344 5336 5329 5324 5320 5318 5317 5318 5319 5321 5323 5324 5324 5323 5322 5320 5317 5313 5309 5305 5299 5293 5287 5280 5274 5267 5260 5253 5245 5238 5230 5224 5218 5214 5210 5209 5208 5208 5210 5212 5214 5217 5219
5332 5326 5320 5315 5312 5310 5310 5311 5313 5314 5316 5317 5317 5317 5315 5314 5311 5308 5304 5299 5294 5288 5282 5276 5269 5262 5255 5248 5240 5233 5226 5219 5214 5211 5208 5207 5207 5208 5210 5213 5215 5218 5220